TimeSAST,TemperatureF,Dew PointF,Humidity,Sea Level PressureIn,VisibilityMPH,Wind Direction,Wind SpeedMPH,Gust SpeedMPH,PrecipitationIn,Events,Conditions,WindDirDegrees,DateUTC
12:00 AM,64.4,53.6,68,30.01,-9999.0,SSW,5.8,-,N/A,,Clear,210,2013-03-19 22:00:00
1:00 AM,62.6,57.2,82,29.98,-9999.0,SW,8.1,-,N/A,,Clear,220,2013-03-19 23:00:00
2:00 AM,62,56,73,29.99,12,SSW,4.6,,,,Clear,210,2013-03-20 00:00:00
2:00 AM,62.6,55.4,77,29.98,-9999.0,SW,4.6,-,N/A,,Clear,230,2013-03-20 00:00:00
3:00 AM,62.6,53.6,72,29.98,-9999.0,SSW,5.8,-,N/A,,Clear,200,2013-03-20 01:00:00
4:00 AM,62.6,55.4,77,29.95,-9999.0,SW,6.9,-,N/A,,Clear,230,2013-03-20 02:00:00
5:00 AM,63,54,64,29.95,12,SW,9.2,,,,,220,2013-03-20 03:00:00
5:00 AM,62.6,53.6,72,29.95,-9999.0,SSW,9.2,-,N/A,,Clear,210,2013-03-20 03:00:00
6:00 AM,55.4,51.8,88,29.95,-9999.0,Variable,2.3,-,N/A,,Clear,0,2013-03-20 04:00:00
7:00 AM,57.2,51.8,82,29.95,-9999.0,Variable,2.3,-,N/A,,Clear,0,2013-03-20 05:00:00
8:00 AM,63,56,73,29.96,16,South,2.3,,,,,190,2013-03-20 06:00:00
8:00 AM,62.6,57.2,82,29.95,-9999.0,SSW,3.5,-,N/A,,Clear,200,2013-03-20 06:00:00
9:00 AM,68.0,55.4,64,29.92,-9999.0,Variable,2.3,-,N/A,,Clear,0,2013-03-20 07:00:00
10:00 AM,73.4,55.4,53,29.92,-9999.0,Variable,3.5,-,N/A,,Clear,0,2013-03-20 08:00:00
11:00 AM,78,54,33,29.94,47,NNW,3.5,,,,Clear,330,2013-03-20 09:00:00
11:00 AM,77.0,53.6,44,29.92,-9999.0,Variable,4.6,-,N/A,,Clear,0,2013-03-20 09:00:00
12:00 PM,80.6,53.6,39,29.92,-9999.0,Variable,4.6,-,N/A,,Clear,0,2013-03-20 10:00:00
1:00 PM,80.6,51.8,37,29.92,-9999.0,SSW,9.2,-,N/A,,Clear,200,2013-03-20 11:00:00
2:00 PM,78,56,36,29.91,25,South,12.7,,,,,190,2013-03-20 12:00:00
2:00 PM,78.8,55.4,44,29.92,-9999.0,South,12.7,-,N/A,,Clear,190,2013-03-20 12:00:00
3:00 PM,77.0,55.4,47,29.89,-9999.0,South,13.8,-,N/A,,Clear,170,2013-03-20 13:00:00
4:00 PM,77.0,55.4,47,29.89,-9999.0,South,10.4,-,N/A,,Clear,170,2013-03-20 14:00:00
5:00 PM,76,57,41,29.89,25,South,11.5,,,,,170,2013-03-20 15:00:00
5:00 PM,75.2,55.4,50,29.89,-9999.0,South,11.5,-,N/A,,Clear,170,2013-03-20 15:00:00
6:00 PM,71.6,59.0,64,29.89,-9999.0,South,13.8,-,N/A,,Clear,190,2013-03-20 16:00:00
7:00 PM,69.8,60.8,73,29.89,-9999.0,South,11.5,-,N/A,,Clear,180,2013-03-20 17:00:00
8:00 PM,68,61,72,29.91,25,SSW,11.5,,,,,200,2013-03-20 18:00:00
8:00 PM,68.0,60.8,78,29.92,-9999.0,SSW,11.5,-,N/A,,Clear,200,2013-03-20 18:00:00
9:00 PM,68.0,60.8,78,29.92,-9999.0,SSW,11.5,-,N/A,,Clear,200,2013-03-20 19:00:00
10:00 PM,66.2,60.8,83,29.92,-9999.0,SSW,11.5,-,N/A,,Clear,210,2013-03-20 20:00:00
11:00 PM,66,62,82,29.93,16,SSW,12.7,,,,Scattered Clouds,200,2013-03-20 21:00:00
11:00 PM,66.2,62.6,88,29.92,6.2,SSW,11.5,-,N/A,,Partly Cloudy,200,2013-03-20 21:00:00